OpenBCM V2.0.2 (Linux)

Packet Radio Mailbox

IZ3LSV

[San Dona' di P. JN]

 Login: GUEST





  
CX2SA  > KEP      31.12.08 01:32l 77 Lines 3135 Bytes #999 (0) @ WW
BID : ARLK100
Read: GUEST
Subj: ARLK100 Keplerian data
Path: IZ3LSV<IR1UAW<IK2QCA<I4UKI<IK6ZDE<VE2GPQ<CX2SA
Sent: 081230/2244Z @:CX2SA.LAV.URY.SA #:62878 [Minas] FBB7.00e $:ARLK100
From: CX2SA@CX2SA.LAV.URY.SA
To  : KEP@ARL


ZCZC SK01
QST de W1AW  
Keplerian Bulletin 100  ARLK100
From ARRL Headquarters
Newington, CT  December 30, 2008
To all radio amateurs 

SB KEP ARL ARLK100
ARLK100 Keplerian data

Special thanks to AMSAT-NA (AMSAT.ORG) for the following Keplerian
data.

Decode 2-line elsets with the following key:
1 AAAAAU 00  0  0 BBBBB.BBBBBBBB  .CCCCCCCC  00000-0  00000-0 0  DDDZ
2 AAAAA EEE.EEEE FFF.FFFF GGGGGGG HHH.HHHH III.IIII JJ.JJJJJJJJKKKKKZ
KEY: A-CATALOGNUM B-EPOCHTIME C-DECAY D-ELSETNUM E-INCLINATION F-RAAN
G-ECCENTRICITY H-ARGPERIGEE I-MNANOM J-MNMOTION K-ORBITNUM Z-CHECKSUM

AO-07
1 07530U 74089B   08364.81936979 -.00000027  00000-0  10000-3 0  3657
2 07530 101.4454 029.6068 0011833 239.6658 120.3242 12.53574877561490
UO-11
1 14781U 84021B   08365.29441993  .00000294  00000-0  46362-4 0  8482
2 14781 098.1315 042.0067 0009574 156.1098 204.0566 14.79687332332858
AO-16
1 20439U 90005D   08364.88107428  .00000000  00000-0  15539-4 0  4982
2 20439 098.2560 335.1998 0010331 318.8995 041.1398 14.31812213988927
AO-27
1 22825U 93061C   08364.52033460 -.00000036  00000-0  24500-5 0  1406
2 22825 098.4139 317.4996 0009193 047.6192 312.5767 14.29254950795671
IO-26
1 22826U 93061D   08364.89028602 -.00000017  00000-0  97363-5 0  8581
2 22826 098.4071 318.6807 0009671 044.0333 316.1623 14.29505418795826
FO-29
1 24278U 96046B   08365.24453234  .00000079  00000-0  11387-3 0  9389
2 24278 098.5772 255.7607 0351251 068.0514 295.7567 13.52941625610901
GO-32
1 25397U 98043D   08364.91517574 -.00000080  00000-0 -17357-4 0  7849
2 25397 098.3436 030.1892 0001927 053.0432 307.0925 14.23152540544051
ISS
1 25544U 98067A   08365.52886502  .00009406  00000-0  75271-4 0  9634
2 25544 051.6421 090.2518 0007423 141.9705 338.6469 15.71869535579425
NO-44
1 26931U 01043C   08364.90426866  .00000007  00000-0  35191-4 0   622
2 26931 067.0504 140.4555 0005982 258.0331 102.0123 14.29543115378388
SO-50
1 27607U 02058C   08364.88702590  .00000022  00000-0  25571-4 0  7779
2 27607 064.5554 179.2801 0082312 241.2309 118.0469 14.71404592323765
CO-55
1 27844U 03031E   08365.45057412  .00000049  00000-0  43335-4 0  4767
2 27844 098.7154 010.9891 0009063 270.9934 089.0202 14.20615001285300
AO-51
1 28375U 04025K   08365.46789382  .00000004  00000-0  14136-4 0  2799
2 28375 098.0574 018.8649 0083358 277.9606 081.2133 14.40629041236662
VO-52
1 28650U 05017B   08364.39515367 -.00000155  00000-0 -13022-4 0  1160
2 28650 097.7671 065.3950 0026376 222.3683 137.5511 14.81535994197502
CO-58
1 28895U 05043F   08364.41368033  .00000043  00000-0  18513-4 0  1983
2 28895 098.0808 253.5777 0018268 156.1214 204.0839 14.59727882168967
HO-59
1 29484U 06041F   08170.27591928  .21901596  31637-5  19690-3 0  4662
2 29484 098.2496 292.5583 0013872 275.6258 084.5236 16.51113477 98738
DO-64
1 32789U 08021G   08364.37951660  .00000328  00000-0  48584-4 0  2515
2 32789 097.9707 063.5571 0015095 221.0441 138.9637 14.81573586 36308

Keplerian bulletins are transmitted twice weekly from W1AW.  The
next scheduled transmission of these data will be Friday, January 2,
2009, at 2330z on Baudot and AMTOR.
NNNN


Read previous mail | Read next mail


 04.05.2026 18:13:13lGo back Go up